SCOUT X-4 DEB, 3750

Orbit data source: Space-Track

SCOUT X-4 DEB, 3750 is space debris in LEO originally from a launch on Thu, 19 Dec 1963 UTC launched from the Air Force Western Test Range (AFWTR). Debris objects in space refer to the collection of defunct objects orbiting the Earth. Examples of debris include non-operational satellites, rocket bodies, and fragments generated from explosions, collisions, or faulty payload assembly.

Loading next visibility...
Identifier
3750, 1963-053J
Orbit
LEO
Country
Flag of USUS
Related business
Manufacturer
Unknown
Mission
Spacecraft
Bus & Motor
Unknown
Mass
Unknown
Launch date (UTC)
1963-12-19 (62 years ago)
Launch vehicle
Unknown
Launch site
Air Force Western Test Range (AFWTR)
Object type
Payload
Rocket body
Debris
Shape & HBR
Unknown shape, 0.1 m
Radar Cross Section
Small (<0.1 m²)

Expand to show TLE details & history
Last TLE update: 10 hours ago

TLE from 10 hours ago
0 SCOUT X-4 DEB
1  3750U 63053J   26036.88142772  .00038938  00000-0  40517-2 0  9998
2  3750  78.5657 217.8891 0166200  19.4609 341.2832 14.79946254789081
Epoch: 2026-02-05T21:09Z
TLE epoch observation values (Epoch: 2026-02-05T21:09:15.355Z)
Latitude
-0.00002°
Longitude
124.54782°
Altitude
522.262 km
Speed
7.662 km/s
True Right ascension
14h 31m 33s
True Declination
0° 00' 00"
Sunlit
Object was in daylight at epoch
Visualization orbit readout
Latitude
Unknown
Longitude
Unknown
Altitude
Unknown
Speed
Unknown
Apparent Right ascension
Unknown
Apparent Declination
Unknown
Sunlit
N/A
Visualization observer readout
Local Sidereal Time
09:44:15
Azimuth
Unknown
Elevation
Unknown
Doppler factor
Unknown
Orbital elements
Apogee altitude
743.147 km
Perigee altitude
510.305 km
Semi-major axis
7,004.863 km
Eccentricity
0.01662
Inclination
78.5657°
RAAN
217.8891°
Arg. of periapsis
19.4609°
True anomaly
340.65982°
Mean anomaly
341.2832°
Eccentric anomaly
340.97275°
Mean motion
3.70206 °/min
Orbital period
97.24 mins
BSTAR
0.0040517
Loading maneuver chart data...
Computing Atmospheric mass density...
Loading historical data...
Loading historical data...
Loading historical data...
Loading historical data...
Loading historical data...
Loading historical data...
Loading historical data...

Documentation

Showing up to 5 results
|